Location: Dalton
(42.4737°N, 73.1662°W)
Time: 19:22:17
(UTC+00:00)

Envisat - Pass Details

Date: 22 September 2024
Orbit: 762 x 764 km, 98.3° (Epoch: 09 October)

Event Time Altitude Azimuth Distance (km) Brightness Sun altitude
Rises 09:43:09 0° 354° (N) 3,235 6.3 -11.4°
Reaches altitude 10° 09:46:44 10° 327° (NNW) 2,303 5.3 -10.7°
Maximum altitude 09:48:56 13° 301° (WNW) 2,102 4.8 -10.3°
Enters shadow 09:50:38 11° 281° (W) 2,221 4.8 -10.0°
